"Pseudo-MPEC" for P21bUZl

Created 2021 Jan 17 19:07:36 UT using Find_Orb

Click here for an explanation of pseudo-MPECs

 
 Astrometry: 
     P21bUZl  C2021 01 120sXAstrometryDC4_34fNRwAxb4redacted;B9_c/h+^elrclickF52
     P21bUZl  C2021 01 12*c(WuM!/fhC,p:^m[6/IhereYI.vXP(;t4y712C2vdTspK3UrnE(F52
     P21bUZl  C2021 01 12=$+KUcU]%forq1mJ#c[iamexplanationeK_u'r*ygP[^Tfd/O?FF52

Station data:
(F52) Pan-STARRS 2, Haleakala  (N20.707384 W156.255910)  US/Hawaii. 1.8-m
   Ritchey-Chrétien + CCD.

Orbital elements:  P21bUZl
   Perihelion 2020 Nov 26.394285 +/- 34.7799 TT =  9:27:46 (JD 2459179.894285)
Epoch 2021 Jan 12.0 TT = JDT 2459226.5   Earth MOID: 0.0063   AutoNEOCP
M  37.43132469 +/- 16.399590        (J2000 ecliptic)
n   0.80314880 +/- 0.371991         Peri.  115.49171 +/- 74.583300
a   1.14623070 +/- 0.353923         Node   303.63208 +/- 60.730606
e   0.1804008 +/- 0.248749          Incl.    1.10767 +/- 5.5689771
P   1.23/448.23d           H 28.8   G  0.15   U 12.1  SR
q 0.93944965 +/- 0.151776    Q 1.35301175 +/- 40.6004
From 3 observations 2021 Jan. 12 (33.7 min); mean residual 0".08
Residuals in arcseconds: 
210112 F52  .07+  .02+    210112 F52  .15-  .05-    210112 F52  .07+  .02+    

Ephemerides (geocentric):
Date (UTC) HH   RA              Dec         delta   r     elong  mag " sig PA
---- -- -- --  -------------   -----------  ------ ------ -----  --- ---- ---
2021 01 17 19  07 59 31.990   +24 44 42.98  .02954 1.0133 175.9 21.5  50d  29
2021 01 17 20  07 59 38.437   +24 41 53.56  .02964 1.0134 175.9 21.5  50d  29
2021 01 17 21  07 59 44.837   +24 39 05.24  .02974 1.0135 176.0 21.5  50d  29
2021 01 17 22  07 59 51.190   +24 36 18.01  .02984 1.0136 176.0 21.5  50d  29
2021 01 17 23  07 59 57.497   +24 33 31.86  .02994 1.0137 176.0 21.5  51d  29
2021 01 18 00  08 00 03.758   +24 30 46.78  .03004 1.0138 176.1 21.5  51d  29
2021 01 18 01  08 00 09.974   +24 28 02.76  .03014 1.0139 176.1 21.5  51d  29
2021 01 18 02  08 00 16.145   +24 25 19.80  .03024 1.0140 176.2 21.5  51d  30
2021 01 18 03  08 00 22.272   +24 22 37.87  .03034 1.0141 176.2 21.5  51d  30
2021 01 18 04  08 00 28.356   +24 19 56.98  .03044 1.0142 176.2 21.6  51d  30
2021 01 18 05  08 00 34.396   +24 17 17.12  .03054 1.0143 176.3 21.6  51d  30
2021 01 18 06  08 00 40.394   +24 14 38.27  .03064 1.0144 176.3 21.6  52d  30
2021 01 18 07  08 00 46.349   +24 12 00.42  .03074 1.0145 176.3 21.6  52d  30
2021 01 18 08  08 00 52.262   +24 09 23.57  .03084 1.0146 176.4 21.6  52d  30
2021 01 18 09  08 00 58.134   +24 06 47.70  .03095 1.0147 176.4 21.6  52d  30
2021 01 18 10  08 01 03.965   +24 04 12.82  .03105 1.0148 176.4 21.6  52d  30
2021 01 18 11  08 01 09.756   +24 01 38.90  .03115 1.0150 176.5 21.6  52d  30
2021 01 18 12  08 01 15.506   +23 59 05.95  .03125 1.0151 176.5 21.6  53d  30
2021 01 18 13  08 01 21.217   +23 56 33.95  .03135 1.0152 176.5 21.6  53d  30
2021 01 18 14  08 01 26.888   +23 54 02.89  .03145 1.0153 176.6 21.6  53d  30
2021 01 18 15  08 01 32.521   +23 51 32.76  .03155 1.0154 176.6 21.6  53d  30
2021 01 18 16  08 01 38.115   +23 49 03.57  .03165 1.0155 176.6 21.6  53d  30
2021 01 18 17  08 01 43.671   +23 46 35.29  .03176 1.0156 176.7 21.6  53d  30
2021 01 18 18  08 01 49.189   +23 44 07.93  .03186 1.0157 176.7 21.6  54d  30
2021 01 18 19  08 01 54.671   +23 41 41.47  .03196 1.0158 176.7 21.6  54d  30
2021 01 18 20  08 02 00.115   +23 39 15.91  .03206 1.0159 176.8 21.6  54d  30
2021 01 18 21  08 02 05.523   +23 36 51.23  .03216 1.0160 176.8 21.6  54d  30
2021 01 18 22  08 02 10.895   +23 34 27.43  .03226 1.0161 176.8 21.6  54d  30
2021 01 18 23  08 02 16.231   +23 32 04.51  .03236 1.0162 176.8 21.7  54d  30
2021 01 19 00  08 02 21.532   +23 29 42.45  .03247 1.0163 176.9 21.7  55d  30
2021 01 19 01  08 02 26.797   +23 27 21.25  .03257 1.0164 176.9 21.7  55d  30
2021 01 19 02  08 02 32.028   +23 25 00.90  .03267 1.0165 176.9 21.7  55d  29
2021 01 19 03  08 02 37.225   +23 22 41.40  .03277 1.0166 177.0 21.7  55d  29
2021 01 19 04  08 02 42.388   +23 20 22.73  .03287 1.0167 177.0 21.7  55d  29
2021 01 19 05  08 02 47.517   +23 18 04.88  .03298 1.0169 177.0 21.7  55d  29
2021 01 19 06  08 02 52.613   +23 15 47.87  .03308 1.0170 177.0 21.7  55d  29
2021 01 19 07  08 02 57.677   +23 13 31.66  .03318 1.0171 177.1 21.7  56d  29
2021 01 19 08  08 03 02.707   +23 11 16.26  .03328 1.0172 177.1 21.7  56d  29
2021 01 19 09  08 03 07.705   +23 09 01.67  .03338 1.0173 177.1 21.7  56d  29
2021 01 19 10  08 03 12.672   +23 06 47.87  .03349 1.0174 177.1 21.7  56d  29
2021 01 19 11  08 03 17.606   +23 04 34.86  .03359 1.0175 177.2 21.7  56d  29
2021 01 19 12  08 03 22.510   +23 02 22.63  .03369 1.0176 177.2 21.7  56d  29
2021 01 19 13  08 03 27.382   +23 00 11.17  .03379 1.0177 177.2 21.7  56d  29
2021 01 19 14  08 03 32.224   +22 58 00.48  .03390 1.0178 177.2 21.7  56d  29
2021 01 19 15  08 03 37.035   +22 55 50.56  .03400 1.0179 177.2 21.7  56d  29
2021 01 19 16  08 03 41.816   +22 53 41.39  .03410 1.0180 177.3 21.7  57d  29
2021 01 19 17  08 03 46.568   +22 51 32.97  .03420 1.0181 177.3 21.7  57d  29
2021 01 19 18  08 03 51.289   +22 49 25.29  .03431 1.0182 177.3 21.8  57d  29